Location: Mactaquac Provincial Park
(45.9573°N, 66.8897°W)
Time: 12:58:41
(UTC-04:00)

Daily predictions for brighter satellites

Satellite Brightness Start Highest point End
(mag) Time Altitude Azimuth Time Altitude Azimuth Time Altitude Azimuth
Cosmos 1515 Rocket 3.9 17:44:31 10° N 17:48:48 43° ENE 17:53:03 10° SSE
Cosmos 1151 Rocket 3.6 17:50:26 10° N 17:54:19 33° ENE 17:58:12 10° SE
COSMOS 2441 4.4 17:50:26 10° SSE 17:55:12 59° ENE 17:59:59 10° N
Cosmos 2322 4.3 17:50:25 10° SW 17:56:02 60° WNW 18:01:42 10° NNE
Cosmos 1076 Rocket 4.2 17:52:21 10° SSW 17:56:31 58° W 18:00:46 10° N
SJ-12 4.4 17:54:22 10° S 17:58:29 69° W 18:02:37 10° NNW
Cosmos 1844 Rocket 2.8 17:53:03 10° NNW 17:58:46 86° WSW 18:04:25 10° SSE
MOS 1 4.4 17:53:40 10° SSE 17:59:19 87° WSW 18:05:02 10° NNW
Cosmos 1634 Rocket 4.1 17:53:20 10° N 17:59:26 55° ENE 18:05:27 10° SSE
Lacrosse 5 rocket 1.7 17:56:38 10° NW 18:00:10 38° NNE 18:03:51 10° E
SL-16 R/B 4.1 17:57:21 10° WSW 18:01:54 24° NW 18:06:30 10° N
Cosmos 1500 Rocket 3.8 18:01:37 10° SSE 18:05:45 46° E 18:09:57 10° NNE
CZ-4C R/B 4.3 18:03:09 10° NW 18:07:01 17° N 18:11:12 10° NE
Cosmos 1763 Rocket 3.5 18:02:58 10° SSW 18:08:12 87° ESE 18:13:24 10° NNE
Meteor 1-28 Rocket 4.4 18:05:37 10° NE 18:08:38 23° E 18:11:38 10° SSE
CZ-4 R/B 2.4 18:05:42 10° S 18:09:27 48° W 18:13:15 10° NNW
Cosmos 2333 4.2 18:04:58 10° SSW 18:10:35 84° ESE 18:16:13 10° NNE
Cosmos 389 Rocket 4.2 18:09:10 10° NNW 18:12:32 37° W 18:15:50 10° SSW
Cosmos 372 Rocket 4.2 18:07:43 10° N 18:12:37 45° ENE 18:17:29 10° SE
Cosmos 332 Rocket 3.8 18:08:41 10° S 18:13:28 70° ESE 18:18:20 10° NNE
Meteor 2-2 Rocket 4.2 18:07:56 10° N 18:13:37 89° E 18:19:16 10° S
NOSS 0 Rocket 4.3 18:09:00 10° S 18:14:53 46° ESE 18:20:47 10° NE
Cosmos 2360 Rocket 3.4 18:11:23 10° WSW 18:16:38 39° NW 18:21:54 10° NNE
Cosmos 1980 4.1 18:13:26 10° S 18:18:47 44° ESE 18:24:08 10° NE
Cosmos 1328 3.9 18:16:37 10° S 18:20:27 53° E 18:24:20 10° NNE
ATLAS 3B R/B 4.5 18:15:44 10° WNW 18:20:55 20° NNW 18:25:57 10° NNE
Lacrosse 4 Rocket 3.3 18:22:17 10° NNE 18:23:59 12° NE 18:23:59 12° NE
USA 215 3.2 18:17:46 10° ESE 18:24:18 77° NE 18:30:52 10° NW
MONITOR-E 4.4 18:22:55 10° S 18:26:04 76° WSW 18:29:15 10° NNW
Cosmos 540 Rocket 3.8 18:21:10 10° S 18:26:05 46° ESE 18:31:01 10° NNE
Meteor 2-10 4.1 18:21:39 10° N 18:26:35 50° ENE 18:31:36 10° SSE
Cosmos 2084 3.3 18:24:25 10° SSW 18:28:14 56° SE 18:30:42 20° NE
BREEZE-M DEB (TANK) 3.7 18:29:53 10° S 18:31:39 18° SE 18:32:06 17° SE
Cosmos 44 3.8 18:26:40 10° S 18:31:41 47° ESE 18:35:10 18° NE
ALOS 3.3 18:28:38 10° ESE 18:32:21 24° ENE 18:36:05 10° NNE
Cosmos 2333 Rocket 2.2 18:27:40 10° SSW 18:33:15 67° ESE 18:38:52 10° NNE
ATLAS 5 CENTAUR R/B 4.1 18:31:23 10° NNW 18:34:05 14° N 18:36:30 11° NE
SJ-6B 3.4 18:30:32 10° SE 18:34:17 37° ENE 18:38:06 10° N
OTV 4 3.2 18:34:14 10° SW 18:35:49 14° SSW 18:37:24 10° SSE
METEOR-M 4.3 18:31:27 10° SE 18:36:37 51° ENE 18:41:48 10° N
Resurs 01 Rocket 2.5 18:40:01 21° E 18:41:34 26° ENE 18:45:16 10° N
COSMO-SKYMED 1 2.5 18:37:31 10° NNE 18:41:54 82° ESE 18:46:15 10° SSW
Cosmos 2219 Rocket 2.2 18:37:13 10° SSW 18:42:52 83° WNW 18:48:31 10° NNE
Cosmos 371 Rocket 3.3 18:38:35 10° SSW 18:43:24 84° WNW 18:48:15 10° NNE
Cosmos 1707 Rocket 4.0 18:40:06 10° N 18:44:07 36° ENE 18:48:07 10° SE
Thor Agena Rocket 4.3 18:40:25 10° N 18:45:33 54° WNW 18:50:35 10° SW
Cosmos 1703 3.9 18:42:12 10° SSE 18:45:42 32° E 18:46:22 30° ENE
Cosmos 1125 Rocket 3.8 18:41:56 10° NNW 18:47:07 68° WSW 18:52:16 10° S
Cosmos 2278 Rocket 2.3 18:42:02 10° NNW 18:47:44 79° WSW 18:53:23 10° SSE
DMSP B5D1-3 4.4 18:42:54 10° NNE 18:48:00 68° ESE 18:53:04 10° S
Cosmos 2058 2.8 18:45:02 10° S 18:49:06 64° E 18:53:10 10° NNE
Meteor 1-27 4.2 18:44:48 10° N 18:50:39 82° E 18:56:30 10° SSE
Cosmos 2279 Rocket 3.9 18:44:25 10° N 18:50:40 79° E 18:56:54 10° SSE
Cosmos 1666 Rocket 4.2 18:53:16 10° SSE 18:56:50 33° E 18:56:50 33° E
FREGAT/IRIS 3.3 18:55:53 10° SSE 18:59:50 38° NNE 19:01:57 10° N
Spot 2 Rocket 3.8 18:54:27 10° SE 18:59:09 41° ENE 19:03:52 10° N
Cosmos 1455 4.2 18:56:16 10° N 18:57:05 15° NNE 18:57:05 15° NNE
NOAA 12 4.0 18:55:04 10° SSE 19:00:19 86° ENE 19:05:37 10° NNW
Cosmos 1626 3.3 18:57:08 10° SSE 18:59:17 27° SE 18:59:17 27° SE
Cosmos 1340 Rocket 2.6 18:59:26 10° S 19:03:20 70° E 19:05:17 28° NNE
Cosmos 44 Rocket 3.6 18:58:32 10° SW 19:03:38 67° NW 19:06:56 22° NNE
CENTAUR R/B 3.4 19:00:11 10° WSW 19:06:13 46° NW 19:12:00 14° NNE
Cosmos 1538 Rocket 4.5 19:02:57 10° S 19:07:49 38° ESE 19:08:21 37° E
SL-14 R/B 4.0 19:05:53 10° SSW 19:09:44 54° WNW 19:13:39 10° N
Cosmos 2180 Rocket 4.4 19:04:38 10° N 19:10:49 88° W 19:17:02 10° S
Lacrosse 5 3.4 19:07:57 10° WNW 19:12:05 24° N 19:13:45 21° NNE
Cosmos 1356 Rocket 4.1 19:08:38 10° S 19:11:17 35° SE 19:11:17 35° SE
Nadezhda 4 Rocket 4.0 19:07:37 10° SSE 19:13:41 55° E 19:19:49 10° NNE
COSMOS 2428 4.3 19:09:35 10° WSW 19:14:38 31° NW 19:19:43 10° N
Cosmos 1726 4.2 19:11:39 10° NNW 19:14:58 30° W 19:18:17 10° SSW
Cosmos 2237 Rocket 2.3 19:09:21 10° SSW 19:14:59 77° WNW 19:19:13 18° NNE
Cosmos 2369 Rocket 3.8 19:14:00 10° N 19:16:36 18° NNE 19:16:36 18° NNE
Cosmos 2151 4.1 19:16:15 10° SSW 19:20:15 43° WNW 19:24:17 10° N
SL-16 R/B 2.2 19:14:50 10° S 19:20:20 55° ESE 19:21:41 44° ENE
Cosmos 1900 4.2 19:18:45 10° NNW 19:23:43 86° NE 19:25:42 37° SE
Timation 1 Rocket 4.5 19:19:00 10° NNW 19:25:02 76° WSW 19:31:01 10° SSE
Cosmos 304 Rocket 3.6 19:22:15 10° SSW 19:27:03 80° ESE 19:28:10 53° NNE
Cosmos 2297 3.8 19:22:12 10° NNW 19:27:55 79° WSW 19:33:38 10° SSE
Cosmos 1092 Rocket 4.0 19:25:49 10° SSE 19:31:57 55° E 19:35:05 29° NNE
Aureole 2 Rocket 3.2 19:29:10 10° SW 19:32:51 58° WNW 19:33:25 51° NNW
Cosmos 1805 Rocket 3.9 19:31:33 10° SSW 19:35:59 67° W 19:38:21 27° N
BREEZE M DEB (TANK) 4.2 19:36:04 10° W 19:37:00 17° WSW 19:37:00 17° WSW
Orbus 7S? 4.2 19:34:17 10° NW 19:38:22 73° NE 19:40:09 49° ESE
Lacrosse 5 rocket 2.6 19:35:51 10° WNW 19:39:21 35° SW 19:40:18 30° SSW
Sich 1 3.8 19:53:28 10° SSW 19:57:08 52° WSW 19:57:08 52° WSW
CZ-4C R/B 4.1 19:53:00 10° NNW 19:57:30 23° NNE 19:57:30 23° NNE
Cosmos 1633 Rocket 4.4 19:58:00 10° SSW 20:00:37 34° SW 20:00:37 34° SW
Lacrosse 4 Rocket 3.7 19:59:23 10° NNW 20:00:22 17° NNW 20:00:22 17° NNW
FENGYUN 3A 4.3 20:01:18 10° S 20:06:31 53° W 20:11:47 10° NNW
ALOS 3.4 20:05:09 10° S 20:09:34 42° W 20:14:01 10° NNW
ATLAS 3B R/B 4.3 20:09:20 10° NNW 20:13:57 20° N 20:13:57 20° N
Resurs 01 Rocket 3.1 20:17:34 34° WSW 20:17:54 35° W 20:22:00 10° NNW
Cosmos 2333 Rocket 4.1 20:13:30 10° W 20:18:02 24° NW 20:20:56 17° N
ATLAS 5 CENTAUR R/B 4.1 20:15:52 10° NNW 20:18:04 20° N 20:18:04 20° N
Lacrosse 5 4.5 20:52:01 10° NW 20:52:57 14° NW 20:52:57 14° NW
CENTAUR R/B 4.5 20:53:47 10° WNW 20:58:52 21° NNW 20:59:12 21° N
Cosmos 2369 Rocket 4.5 20:57:13 10° NNW 20:58:25 17° NNW 20:58:25 17° NNW
SL-16 R/B 4.1 20:59:58 10° WSW 21:03:37 26° WNW 21:03:37 26° WNW
